BCS14T EDDP-EDDF

Flight info

Callsign BCS14T
Flight time 0h 35m
Altitude 22000
Route ORTAG5N ORTAG T177 ODIPI/N0440F210 T157 KERAX KERAX5D
Aircraft A306/H-SDE3FGHIRWY/LB1

Departure

Time 2026-05-05 00:19
Airport Leipzig/Halle Airport (EDDP)

Arrival

Time 2026-05-05 00:55
Airport Frankfurt Main Airport (EDDF)
Time Latitude Longitude Altitude Speed Heading
2026-05-04 23:57 51.40994 12.24501 471 ft 0 kts 266°
2026-05-05 00:05 51.40995 12.24538 470 ft 4 kts 275°
2026-05-05 00:05 51.40993 12.24565 471 ft 4 kts 287°
2026-05-05 00:06 51.40981 12.24602 469 ft 4 kts 322°
2026-05-05 00:06 51.40968 12.24613 470 ft 1 kts 355°
2026-05-05 00:14 51.40983 12.24611 471 ft 8 kts 355°
2026-05-05 00:15 51.41062 12.24600 470 ft 12 kts 352°
2026-05-05 00:15 51.41145 12.24582 469 ft 12 kts
2026-05-05 00:15 51.41185 12.24672 470 ft 10 kts 83°
2026-05-05 00:15 51.41189 12.24772 470 ft 8 kts 84°
2026-05-05 00:16 51.41193 12.24835 478 ft 4 kts 84°
2026-05-05 00:16 51.41197 12.24903 480 ft 7 kts 85°
2026-05-05 00:16 51.41201 12.24979 481 ft 7 kts 85°
2026-05-05 00:16 51.41205 12.25060 477 ft 11 kts 85°
2026-05-05 00:17 51.41212 12.25198 480 ft 13 kts 85°
2026-05-05 00:17 51.41218 12.25335 474 ft 12 kts 85°
2026-05-05 00:17 51.41224 12.25461 477 ft 11 kts 85°
2026-05-05 00:17 51.41240 12.25589 474 ft 12 kts 56°
2026-05-05 00:18 51.41308 12.25609 477 ft 10 kts 349°
2026-05-05 00:18 51.41373 12.25541 475 ft 13 kts 308°
2026-05-05 00:18 51.41392 12.25397 471 ft 14 kts 270°
2026-05-05 00:18 51.41383 12.25240 473 ft 15 kts 265°
2026-05-05 00:19 51.41356 12.24642 474 ft 101 kts 265°
2026-05-05 00:19 51.41295 12.23069 498 ft 180 kts 270°
2026-05-05 00:19 51.41207 12.20937 1662 ft 203 kts 265°
2026-05-05 00:19 51.41092 12.18614 2717 ft 212 kts 264°
2026-05-05 00:20 51.40939 12.16134 3494 ft 238 kts 264°
2026-05-05 00:20 51.40806 12.13419 4402 ft 255 kts 264°
2026-05-05 00:20 51.40641 12.10551 5538 ft 262 kts 259°
2026-05-05 00:20 51.40148 12.07741 6398 ft 263 kts 249°
2026-05-05 00:21 51.39474 12.05018 6836 ft 263 kts 245°
2026-05-05 00:21 51.38699 12.02358 7229 ft 264 kts 243°
2026-05-05 00:21 51.37871 11.99735 7624 ft 264 kts 242°
2026-05-05 00:21 51.37022 11.97123 8028 ft 265 kts 242°
2026-05-05 00:22 51.36169 11.94502 8437 ft 266 kts 242°
2026-05-05 00:22 51.35328 11.91901 8901 ft 268 kts 242°
2026-05-05 00:22 51.34476 11.89232 9910 ft 270 kts 242°
2026-05-05 00:22 51.33613 11.86509 10860 ft 282 kts 243°
2026-05-05 00:23 51.32691 11.83589 11327 ft 307 kts 243°
2026-05-05 00:23 51.31695 11.80434 11714 ft 329 kts 243°
2026-05-05 00:23 51.30633 11.77064 12081 ft 349 kts 243°
2026-05-05 00:23 51.29516 11.73526 12619 ft 362 kts 243°
2026-05-05 00:24 51.28370 11.69904 13348 ft 368 kts 243°
2026-05-05 00:24 51.27222 11.66278 14078 ft 373 kts 242°
2026-05-05 00:24 51.26044 11.62562 14777 ft 377 kts 243°
2026-05-05 00:24 51.24851 11.58810 15495 ft 381 kts 242°
2026-05-05 00:25 51.23645 11.55022 16203 ft 385 kts 242°
2026-05-05 00:25 51.22360 11.51235 16827 ft 391 kts 239°
2026-05-05 00:25 51.20984 11.47440 17380 ft 398 kts 239°
2026-05-05 00:25 51.19583 11.43620 18044 ft 401 kts 239°
2026-05-05 00:26 51.18155 11.39774 18604 ft 405 kts 238°
2026-05-05 00:26 51.16706 11.35905 19068 ft 409 kts 238°
2026-05-05 00:26 51.15255 11.32051 19563 ft 412 kts 238°
2026-05-05 00:26 51.13776 11.28136 19883 ft 413 kts 238°
2026-05-05 00:27 51.12296 11.24219 19971 ft 413 kts 238°
2026-05-05 00:27 51.10809 11.20292 19966 ft 414 kts 238°
2026-05-05 00:27 51.09320 11.16364 19968 ft 415 kts 238°
2026-05-05 00:27 51.07830 11.12438 19968 ft 415 kts 238°
2026-05-05 00:28 51.06339 11.08512 19966 ft 415 kts 238°
2026-05-05 00:28 51.04847 11.04589 19955 ft 415 kts 238°
2026-05-05 00:28 51.03350 11.00660 19968 ft 415 kts 238°
2026-05-05 00:28 51.01874 10.96792 19967 ft 415 kts 238°
2026-05-05 00:29 51.00376 10.92873 19966 ft 415 kts 238°
2026-05-05 00:29 50.98876 10.88954 19971 ft 416 kts 238°
2026-05-05 00:29 50.97372 10.85031 19956 ft 416 kts 238°
2026-05-05 00:29 50.95865 10.81108 19966 ft 417 kts 238°
2026-05-05 00:30 50.94356 10.77183 19969 ft 417 kts 238°
2026-05-05 00:30 50.92847 10.73264 19966 ft 417 kts 238°
2026-05-05 00:30 50.91336 10.69347 19969 ft 416 kts 238°
2026-05-05 00:30 50.89845 10.65487 19966 ft 416 kts 238°
2026-05-05 00:31 50.88330 10.61572 19967 ft 416 kts 238°
2026-05-05 00:31 50.86816 10.57664 19964 ft 417 kts 237°
2026-05-05 00:31 50.85302 10.53762 19954 ft 417 kts 237°
2026-05-05 00:31 50.83783 10.49852 19965 ft 416 kts 237°
2026-05-05 00:32 50.82265 10.45954 19962 ft 416 kts 237°
2026-05-05 00:32 50.80746 10.42056 19956 ft 417 kts 237°
2026-05-05 00:32 50.79232 10.38151 19963 ft 417 kts 238°
2026-05-05 00:32 50.77880 10.34157 19974 ft 418 kts 241°
2026-05-05 00:33 50.76554 10.30077 19974 ft 418 kts 242°
2026-05-05 00:33 50.75238 10.25978 19955 ft 419 kts 242°
2026-05-05 00:33 50.73926 10.21869 19962 ft 419 kts 242°
2026-05-05 00:33 50.72619 10.17763 19954 ft 419 kts 242°
2026-05-05 00:34 50.71313 10.13659 19967 ft 419 kts 242°
2026-05-05 00:34 50.70005 10.09553 19953 ft 419 kts 242°
2026-05-05 00:34 50.68697 10.05445 19954 ft 419 kts 242°
2026-05-05 00:34 50.67406 10.01400 19967 ft 419 kts 242°
2026-05-05 00:35 50.66095 9.97302 19952 ft 419 kts 242°
2026-05-05 00:35 50.64783 9.93205 19957 ft 419 kts 242°
2026-05-05 00:35 50.63471 9.89115 19887 ft 415 kts 242°
2026-05-05 00:35 50.62195 9.85136 19579 ft 397 kts 242°
2026-05-05 00:36 50.60970 9.81326 19347 ft 386 kts 242°
2026-05-05 00:36 50.59758 9.77563 19116 ft 384 kts 242°
2026-05-05 00:36 50.58552 9.73827 18875 ft 383 kts 241°
2026-05-05 00:36 50.57344 9.70093 18644 ft 382 kts 241°
2026-05-05 00:37 50.56158 9.66432 18409 ft 381 kts 241°
2026-05-05 00:37 50.54957 9.62726 18080 ft 378 kts 241°
2026-05-05 00:37 50.53777 9.59087 17156 ft 372 kts 241°
2026-05-05 00:37 50.52604 9.55478 16612 ft 369 kts 241°
2026-05-05 00:38 50.51434 9.51883 16354 ft 370 kts 241°
2026-05-05 00:38 50.50257 9.48272 16014 ft 377 kts 242°
2026-05-05 00:38 50.49051 9.44567 15847 ft 379 kts 241°
2026-05-05 00:38 50.47864 9.40932 15591 ft 370 kts 241°
2026-05-05 00:39 50.46691 9.37356 15344 ft 368 kts 241°
2026-05-05 00:39 50.45538 9.33844 15104 ft 367 kts 241°
2026-05-05 00:39 50.44372 9.30295 14852 ft 366 kts 241°
2026-05-05 00:39 50.43207 9.26752 14609 ft 364 kts 241°
2026-05-05 00:40 50.42048 9.23235 14394 ft 362 kts 241°
2026-05-05 00:40 50.40895 9.19738 14150 ft 360 kts 240°
2026-05-05 00:40 50.39744 9.16256 13906 ft 359 kts 240°
2026-05-05 00:40 50.38597 9.12788 13661 ft 358 kts 240°
2026-05-05 00:41 50.37467 9.09378 13396 ft 357 kts 241°
2026-05-05 00:41 50.36327 9.05938 13127 ft 355 kts 241°
2026-05-05 00:41 50.35190 9.02514 12857 ft 354 kts 241°
2026-05-05 00:41 50.34057 8.99107 12603 ft 352 kts 241°
2026-05-05 00:42 50.32925 8.95709 12352 ft 351 kts 241°
2026-05-05 00:42 50.31800 8.92335 12094 ft 349 kts 241°
2026-05-05 00:42 50.30677 8.88967 11837 ft 348 kts 240°
2026-05-05 00:42 50.29557 8.85617 11584 ft 347 kts 240°
2026-05-05 00:43 50.28454 8.82321 11335 ft 346 kts 241°
2026-05-05 00:43 50.27340 8.78998 11088 ft 344 kts 241°
2026-05-05 00:43 50.26230 8.75690 10840 ft 343 kts 241°
2026-05-05 00:43 50.25125 8.72399 10598 ft 341 kts 241°
2026-05-05 00:44 50.24021 8.69120 10351 ft 340 kts 241°
2026-05-05 00:44 50.22923 8.65859 10116 ft 339 kts 241°
2026-05-05 00:44 50.21828 8.62614 9876 ft 336 kts 241°
2026-05-05 00:44 50.20777 8.59496 9587 ft 311 kts 241°
2026-05-05 00:45 50.19808 8.56624 9298 ft 288 kts 240°
2026-05-05 00:45 50.18914 8.53980 9040 ft 272 kts 240°
2026-05-05 00:45 50.18037 8.51395 8772 ft 268 kts 240°
2026-05-05 00:45 50.17164 8.48827 8509 ft 268 kts 240°
2026-05-05 00:46 50.16292 8.46261 8248 ft 267 kts 240°
2026-05-05 00:46 50.15425 8.43714 8061 ft 266 kts 240°
2026-05-05 00:46 50.14560 8.41171 7801 ft 265 kts 240°
2026-05-05 00:46 50.13699 8.38644 7542 ft 264 kts 240°
2026-05-05 00:47 50.12840 8.36126 7302 ft 263 kts 240°
2026-05-05 00:47 50.11994 8.33644 7056 ft 262 kts 240°
2026-05-05 00:47 50.11138 8.31136 6804 ft 262 kts 240°
2026-05-05 00:47 50.10285 8.28638 6562 ft 261 kts 240°
2026-05-05 00:48 50.09431 8.26146 6442 ft 261 kts 240°
2026-05-05 00:48 50.08595 8.23650 6108 ft 258 kts 240°
2026-05-05 00:48 50.07601 8.21436 5873 ft 242 kts 226°
2026-05-05 00:48 50.06307 8.19897 5595 ft 231 kts 209°
2026-05-05 00:49 50.04819 8.19086 5218 ft 227 kts 184°
2026-05-05 00:49 50.03280 8.19466 5049 ft 227 kts 159°
2026-05-05 00:49 50.02010 8.20914 5016 ft 243 kts 136°
2026-05-05 00:49 50.00891 8.22978 4596 ft 253 kts 130°
2026-05-05 00:50 49.99803 8.25077 4156 ft 243 kts 130°
2026-05-05 00:50 49.98779 8.27037 4035 ft 225 kts 130°
2026-05-05 00:50 49.98104 8.29143 4031 ft 214 kts 98°
2026-05-05 00:50 49.98111 8.31281 4058 ft 190 kts 85°
2026-05-05 00:51 49.98419 8.33243 3892 ft 190 kts 72°
2026-05-05 00:51 49.98888 8.35173 3553 ft 190 kts 70°
2026-05-05 00:51 49.99350 8.37087 3199 ft 188 kts 70°
2026-05-05 00:51 49.99793 8.38953 2846 ft 185 kts 70°
2026-05-05 00:52 50.00235 8.40825 2496 ft 184 kts 70°
2026-05-05 00:52 50.00679 8.42690 2142 ft 183 kts 70°
2026-05-05 00:52 50.01121 8.44536 1746 ft 182 kts 69°
2026-05-05 00:52 50.01561 8.46369 1390 ft 181 kts 69°
2026-05-05 00:53 50.01983 8.48135 1088 ft 167 kts 69°
2026-05-05 00:53 50.02364 8.49742 882 ft 148 kts 69°
2026-05-05 00:53 50.02696 8.51114 694 ft 129 kts 68°
2026-05-05 00:53 50.02979 8.52350 523 ft 122 kts 68°
2026-05-05 00:54 50.03294 8.53600 406 ft 134 kts 68°
2026-05-05 00:54 50.03602 8.54871 358 ft 111 kts 69°
2026-05-05 00:54 50.03834 8.55845 364 ft 83 kts 71°
2026-05-05 00:54 50.04015 8.56595 366 ft 67 kts 70°
2026-05-05 00:55 50.04159 8.57209 375 ft 55 kts 70°
2026-05-05 00:55 50.04271 8.57690 373 ft 24 kts 65°
2026-05-05 00:55 50.04350 8.57959 373 ft 34 kts 69°
2026-05-05 00:55 50.04422 8.58282 375 ft 31 kts 69°
2026-05-05 00:56 50.04501 8.58579 377 ft 29 kts 66°